﻿_id,日時,平均風速(m/s),平均風向,最大瞬間風速(m/s),最大風速時風向,気温(℃),湿度(%),10分間移動積算雨量(mm),1時間移動積算雨量(mm),日雨量(mm),累計雨量(mm),日射(日積算)(MJ/m2),日照(日積算)(min),現地気圧(hPa),海面気圧(hPa)
1,2023-05-08T00:00:00,3.8,北北西,10,西北西,12.7,94.8,1.5,12,105.5,106.5,3.52,0,991.4,1005.2
2,2023-05-08T00:01:00,3.7,北北西,10,西北西,12.8,94.9,1.5,11.5,0,106.5,0,0,991.4,1005.2
3,2023-05-08T00:02:00,3.8,北北西,10,西北西,12.7,95,1.5,11.5,0.5,107,0,0,991.5,1005.3
4,2023-05-08T00:03:00,3.8,北北西,10,西北西,12.8,95.2,1.5,11.5,0.5,107,0,0,991.6,1005.4
5,2023-05-08T00:04:00,4,北北西,10,西北西,12.8,95.1,1.5,11,0.5,107,0,0,991.6,1005.4
6,2023-05-08T00:05:00,3.9,北北西,10,西北西,12.8,95.1,1.5,11.5,1,107.5,0,0,991.6,1005.4
7,2023-05-08T00:06:00,3.8,北北西,9,北北東,12.8,95,1.5,11,1,107.5,0,0,991.7,1005.5
8,2023-05-08T00:07:00,4,北北西,9,北北東,12.8,94.7,1,11,1,107.5,0,0,991.6,1005.4
9,2023-05-08T00:08:00,4.2,北北西,9,北北東,12.8,94.7,1,11,1,107.5,0,0,991.7,1005.5
10,2023-05-08T00:09:00,4.2,北北西,9,北北東,12.8,94.5,1.5,11.5,1.5,108,0,0,991.6,1005.4
11,2023-05-08T00:10:00,4.2,北北西,10.2,北北西,12.8,94.3,1.5,11,1.5,108,0,0,991.5,1005.3
12,2023-05-08T00:11:00,4.3,北北西,10.2,北北西,12.8,94.2,1.5,11,1.5,108,0,0,991.6,1005.4
13,2023-05-08T00:12:00,4.4,北北西,10.2,北北西,12.8,94.1,1,10.5,1.5,108,0,0,991.6,1005.4
14,2023-05-08T00:13:00,4.3,北北西,10.2,北北西,12.8,94,1.5,11,2,108.5,0,0,991.6,1005.4
15,2023-05-08T00:14:00,4.3,北北西,10.2,北北西,12.7,93.9,1.5,11,2,108.5,0,0,991.7,1005.5
16,2023-05-08T00:15:00,4.4,北北西,10.2,北北西,12.7,94.1,1,10.5,2,108.5,0,0,991.8,1005.6
17,2023-05-08T00:16:00,4.5,北北西,10.2,北北西,12.8,94,1.5,11,2.5,109,0,0,991.7,1005.5
18,2023-05-08T00:17:00,4.2,北北西,10.2,北北西,12.8,94.1,1.5,10.5,2.5,109,0,0,991.8,1005.6
19,2023-05-08T00:18:00,4.1,北北西,10.2,北北西,12.8,94.1,2,11,3,109.5,0,0,991.9,1005.7
20,2023-05-08T00:19:00,4.2,北北西,10.2,北北西,12.8,94.1,1.5,11,3,109.5,0,0,991.9,1005.7
21,2023-05-08T00:20:00,4.2,北,10.2,北東,12.8,94.1,1.5,10.5,3,109.5,0,0,991.8,1005.6
22,2023-05-08T00:21:00,4.2,北,14.3,北,12.9,94.4,1.5,10.5,3,109.5,0,0,991.7,1005.5
23,2023-05-08T00:22:00,4.2,北,14.3,北,12.8,94.1,1.5,10,3,109.5,0,0,991.6,1005.4
24,2023-05-08T00:23:00,4.3,北,14.3,北,13,94.1,1,10,3,109.5,0,0,991.7,1005.5
25,2023-05-08T00:24:00,4.1,北,14.3,北,13.1,94.3,1,9.5,3,109.5,0,0,991.7,1005.5
26,2023-05-08T00:25:00,4.1,北,14.3,北,12.9,93.8,1.5,10,3.5,110,0,0,991.7,1005.5
27,2023-05-08T00:26:00,4,北,14.3,北,12.8,93,1,9.5,3.5,110,0,0,991.7,1005.5
28,2023-05-08T00:27:00,4.2,北,14.3,北,12.9,93,1,9.5,3.5,110,0,0,991.7,1005.5
29,2023-05-08T00:28:00,4.5,北,14.3,北,12.8,93.2,0.5,9,3.5,110,0,0,991.5,1005.3
30,2023-05-08T00:29:00,4.6,北,14.3,北,12.7,93.2,0.5,9,3.5,110,0,0,991.6,1005.4
31,2023-05-08T00:30:00,4.4,北,14.3,北,12.7,93.2,1,9,4,110.5,0,0,991.5,1005.3
32,2023-05-08T00:31:00,4.1,北,10.6,北,12.6,93.4,1,9,4,110.5,0,0,991.4,1005.2
33,2023-05-08T00:32:00,3.9,北,10.6,北,12.6,93.6,1,9,4,110.5,0,0,991.3,1005.1
34,2023-05-08T00:33:00,3.8,北,10.6,北,12.6,94,1,8.5,4,110.5,0,0,991.2,1005
35,2023-05-08T00:34:00,4,北,10.6,北,12.7,94.2,1,8.5,4,110.5,0,0,991.2,1005
36,2023-05-08T00:35:00,4.2,北,10.6,北,12.7,94.6,0.5,8,4,110.5,0,0,991.1,1004.9
37,2023-05-08T00:36:00,4.2,北,10.6,北,12.7,94.6,0.5,8,4,110.5,0,0,991.1,1004.9
38,2023-05-08T00:37:00,4,北,10.6,北,12.7,94.5,0.5,8,4,110.5,0,0,991.2,1005
39,2023-05-08T00:38:00,3.7,北,9.3,北,12.7,94.4,1,8.5,4.5,111,0,0,991.3,1005.1
40,2023-05-08T00:39:00,3.7,北,9.6,北,12.7,94.5,1,8,4.5,111,0,0,991.3,1005.1
41,2023-05-08T00:40:00,3.9,北,9.6,北,12.7,94.3,0.5,8,4.5,111,0,0,991.3,1005.1
42,2023-05-08T00:41:00,3.9,北,9.6,北,12.7,94.2,0.5,8,4.5,111,0,0,991.3,1005.1
43,2023-05-08T00:42:00,4.1,北,9.6,北,12.7,94.3,0.5,7.5,4.5,111,0,0,991.3,1005.1
44,2023-05-08T00:43:00,4.1,北,9.6,北,12.7,94.1,0.5,7.5,4.5,111,0,0,991.3,1005.1
45,2023-05-08T00:44:00,4.1,北,9.6,北,12.7,94.1,1,8,5,111.5,0,0,991.3,1005.1
46,2023-05-08T00:45:00,4,北,9.7,北北東,12.6,94,1,7.5,5,111.5,0,0,991.2,1005
47,2023-05-08T00:46:00,3.9,北,9.7,北北東,12.7,94.1,1,7.5,5,111.5,0,0,991.2,1005
48,2023-05-08T00:47:00,4,北,9.7,北北東,12.6,94.1,1,7,5,111.5,0,0,991.2,1005
49,2023-05-08T00:48:00,4,北,9.7,北北東,12.6,94.2,0.5,7,5,111.5,0,0,991.1,1004.9
50,2023-05-08T00:49:00,3.9,北北西,9.7,北北東,12.6,94.1,0.5,7,5,111.5,0,0,991.1,1004.9
51,2023-05-08T00:50:00,3.9,北北西,9.7,北北東,12.5,94.1,0.5,6.5,5,111.5,0,0,991.1,1004.9
52,2023-05-08T00:51:00,3.8,北北西,9.7,北北東,12.6,94.4,0.5,6.5,5,111.5,0,0,991.1,1004.9
53,2023-05-08T00:52:00,3.8,北北西,10,北,12.6,94.4,1,6.5,5.5,112,0,0,991.1,1004.9
54,2023-05-08T00:53:00,3.9,北北西,10,北,12.6,94.4,1,6.5,5.5,112,0,0,991.2,1005
55,2023-05-08T00:54:00,4,北北西,10.1,北西,12.6,94.5,0.5,6.5,5.5,112,0,0,991.1,1004.9
56,2023-05-08T00:55:00,4.2,北北西,10.2,北西,12.6,94.5,0.5,6,5.5,112,0,0,991.3,1005.1
57,2023-05-08T00:56:00,4.3,北北西,10.2,北西,12.6,94.6,0.5,6,5.5,112,0,0,991.2,1005
58,2023-05-08T00:57:00,4.4,北北西,10.2,北西,12.6,94.5,0.5,5.5,5.5,112,0,0,991.3,1005.1
59,2023-05-08T00:58:00,4.5,北北西,10.2,北西,12.7,94.5,0.5,5.5,5.5,112,0,0,991.3,1005.1
60,2023-05-08T00:59:00,4.6,北北西,10.2,北西,12.7,94.7,0.5,5.5,5.5,112,0,0,991.3,1005.1
61,2023-05-08T01:00:00,4.7,北北西,10.2,北西,12.7,94.3,1,6,6,112.5,0,0,991.4,1005.2
62,2023-05-08T01:01:00,4.8,北北西,10.2,北西,12.7,94.1,1,6,6,112.5,0,0,991.4,1005.2
63,2023-05-08T01:02:00,4.8,北北西,10.2,北西,12.7,93.8,0.5,5.5,6,112.5,0,0,991.5,1005.3
64,2023-05-08T01:03:00,4.7,北北西,10.2,北西,12.7,93.7,0.5,5.5,6,112.5,0,0,991.4,1005.2
65,2023-05-08T01:04:00,4.4,北北西,10.2,北西,12.6,93.5,0.5,5.5,6,112.5,0,0,991.4,1005.2
66,2023-05-08T01:05:00,4.4,北北西,9.5,北,12.6,93.5,0.5,5,6,112.5,0,0,991.2,1005
67,2023-05-08T01:06:00,4.4,北北西,9.5,北,12.7,93.4,0.5,5,6,112.5,0,0,991.4,1005.2
68,2023-05-08T01:07:00,4.3,北北西,9.5,北,12.7,93.4,0.5,5,6,112.5,0,0,991.3,1005.1
69,2023-05-08T01:08:00,4.1,北北西,9.5,北,12.6,93.2,1,5.5,6.5,113,0,0,991.3,1005.1
70,2023-05-08T01:09:00,4.2,北北西,10.1,北,12.6,93,1,5,6.5,113,0,0,991.2,1005
71,2023-05-08T01:10:00,4.1,北北西,10.1,北,12.6,93.1,0.5,5,6.5,113,0,0,991.3,1005.1
72,2023-05-08T01:11:00,3.9,北北西,10.1,北,12.6,93.2,0.5,5,6.5,113,0,0,991.3,1005.1
73,2023-05-08T01:12:00,3.9,北北西,10.1,北,12.6,93.3,0.5,5,6.5,113,0,0,991.3,1005.1
74,2023-05-08T01:13:00,3.9,北北西,10.1,北,12.5,93.2,0.5,4.5,6.5,113,0,0,991.4,1005.2
75,2023-05-08T01:14:00,4.1,北北西,10.1,北,12.6,93.2,0.5,4.5,6.5,113,0,0,991.4,1005.2
76,2023-05-08T01:15:00,3.9,北北西,10.1,北,12.6,93.2,0.5,4.5,6.5,113,0,0,991.4,1005.2
77,2023-05-08T01:16:00,3.9,北北西,10.1,北,12.6,93.1,0.5,4,6.5,113,0,0,991.4,1005.2
78,2023-05-08T01:17:00,4,北北西,10.1,北,12.6,92.9,0.5,4,6.5,113,0,0,991.5,1005.3
79,2023-05-08T01:18:00,4.3,北北西,10.9,北北東,12.6,92.7,0,3.5,6.5,113,0,0,991.4,1005.2
80,2023-05-08T01:19:00,4.4,北北西,11,北北東,12.7,92.8,0,3.5,6.5,113,0,0,991.4,1005.2
81,2023-05-08T01:20:00,4.5,北北西,11,北北東,12.6,92.4,0,3.5,6.5,113,0,0,991.4,1005.2
82,2023-05-08T01:21:00,4.8,北北西,11,北北東,12.6,92.1,0,3.5,6.5,113,0,0,991.3,1005.1
83,2023-05-08T01:22:00,5.1,北北西,11,北北東,12.6,91.9,0,3.5,6.5,113,0,0,991.2,1005
84,2023-05-08T01:23:00,5.1,北北西,11,北北東,12.6,91.8,0,3.5,6.5,113,0,0,991.3,1005.1
85,2023-05-08T01:24:00,5,北北西,11,北北東,12.6,91.7,0,3.5,6.5,113,0,0,991.3,1005.1
86,2023-05-08T01:25:00,5,北北西,11,北北東,12.6,91.6,0,3,6.5,113,0,0,991.4,1005.2
87,2023-05-08T01:26:00,5,北北西,11,北北東,12.7,91.6,0.5,3.5,7,113.5,0,0,991.3,1005.1
88,2023-05-08T01:27:00,5.1,北北西,11,北北東,12.6,91.6,0.5,3.5,7,113.5,0,0,991.4,1005.2
89,2023-05-08T01:28:00,5,北北西,11,北北東,12.6,91.3,0.5,3.5,7,113.5,0,0,991.4,1005.2
90,2023-05-08T01:29:00,4.9,北北西,11,北北東,12.6,91.1,0.5,3.5,7,113.5,0,0,991.5,1005.3
91,2023-05-08T01:30:00,4.8,北北西,11,北北東,12.6,90.9,0.5,3,7,113.5,0,0,991.5,1005.3
92,2023-05-08T01:31:00,4.7,北北西,11,北北東,12.5,90.8,0.5,3,7,113.5,0,0,991.5,1005.3
93,2023-05-08T01:32:00,4.6,北北西,11,北北東,12.5,90.8,0.5,3,7,113.5,0,0,991.4,1005.2
94,2023-05-08T01:33:00,4.7,北北西,11,北北東,12.4,90.9,1,3.5,7.5,114,0,0,991.3,1005.1
95,2023-05-08T01:34:00,4.7,北北西,11,北北東,12.5,91.2,1,3.5,7.5,114,0,0,991.4,1005.2
96,2023-05-08T01:35:00,4.6,北北西,11,北北東,12.4,91.3,1,3.5,7.5,114,0,0,991.4,1005.2
97,2023-05-08T01:36:00,4.6,北北西,9.4,北北東,12.4,91.4,0.5,3.5,7.5,114,0,0,991.4,1005.2
98,2023-05-08T01:37:00,4.7,北北西,9.4,北北東,12.3,91.4,0.5,3.5,7.5,114,0,0,991.4,1005.2
99,2023-05-08T01:38:00,4.5,北北西,9.4,北北東,12.3,91.7,0.5,3,7.5,114,0,0,991.5,1005.3
100,2023-05-08T01:39:00,4.4,北北西,9.4,北北東,12.3,91.9,0.5,3,7.5,114,0,0,991.5,1005.3
101,2023-05-08T01:40:00,4.4,北北西,9.4,北北東,12.3,92.2,1,3.5,8,114.5,0,0,991.6,1005.4
102,2023-05-08T01:41:00,4.2,北北西,8.9,北,12.3,92.4,1,3.5,8,114.5,0,0,991.6,1005.4
103,2023-05-08T01:42:00,4.2,北北西,10.1,北北西,12.3,92.4,1,3.5,8,114.5,0,0,991.7,1005.5
104,2023-05-08T01:43:00,4.2,北北西,10.1,北北西,12.3,92.5,0.5,3.5,8,114.5,0,0,991.9,1005.7
105,2023-05-08T01:44:00,4.3,北北西,10.1,北北西,12.4,92.7,0.5,3,8,114.5,0,0,991.9,1005.7
106,2023-05-08T01:45:00,4.4,北西,10.1,北北西,12.4,92.8,0.5,3,8,114.5,0,0,992,1005.8
107,2023-05-08T01:46:00,4.5,北西,10.1,北北西,12.4,92.7,0.5,3,8,114.5,0,0,991.9,1005.7
108,2023-05-08T01:47:00,4.4,北西,10.1,北北西,12.5,92.6,0.5,3,8,114.5,0,0,991.9,1005.7
109,2023-05-08T01:48:00,4.5,北西,10.1,北北西,12.5,92.3,0.5,3,8,114.5,0,0,991.9,1005.7
110,2023-05-08T01:49:00,4.8,北西,10.4,北西,12.4,92,0.5,3,8,114.5,0,0,991.8,1005.6
111,2023-05-08T01:50:00,4.9,北西,10.4,北西,12.5,91.8,0,3,8,114.5,0,0,991.9,1005.7
112,2023-05-08T01:51:00,5.1,北西,10.4,北西,12.5,91.5,0,3,8,114.5,0,0,991.9,1005.7
113,2023-05-08T01:52:00,4.8,北西,10.4,北西,12.5,91.2,0,2.5,8,114.5,0,0,991.9,1005.7
114,2023-05-08T01:53:00,4.6,北西,10.4,北西,12.5,91,0,2.5,8,114.5,0,0,991.8,1005.6
115,2023-05-08T01:54:00,4.6,北西,10.4,北西,12.5,90.9,0.5,3,8.5,115,0,0,991.8,1005.6
116,2023-05-08T01:55:00,4.5,北北西,10.4,北西,12.4,90.8,0.5,3,8.5,115,0,0,991.8,1005.6
117,2023-05-08T01:56:00,4.3,北北西,10.4,北西,12.4,90.9,0.5,3,8.5,115,0,0,991.9,1005.7
118,2023-05-08T01:57:00,4.2,北北西,10.4,北西,12.4,90.9,0.5,3,8.5,115,0,0,991.9,1005.7
119,2023-05-08T01:58:00,4.2,北北西,10.4,北西,12.4,91.1,0.5,3,8.5,115,0,0,991.9,1005.7
120,2023-05-08T01:59:00,4.1,北北西,9.1,北西,12.4,91.2,0.5,3,8.5,115,0,0,991.8,1005.6
121,2023-05-08T02:00:00,4,北北西,9.1,北西,12.4,91.3,0.5,2.5,8.5,115,0,0,991.9,1005.7
122,2023-05-08T02:01:00,4,北北西,9.1,北西,12.4,91.3,0.5,2.5,8.5,115,0,0,991.9,1005.7
123,2023-05-08T02:02:00,4.3,北北西,9.3,北,12.5,91.3,0.5,2.5,8.5,115,0,0,991.9,1005.7
124,2023-05-08T02:03:00,4.4,北北西,9.3,北,12.4,91.3,0.5,2.5,8.5,115,0,0,991.8,1005.6
125,2023-05-08T02:04:00,4.4,北北西,9.3,北,12.5,91.3,0,2.5,8.5,115,0,0,991.8,1005.6
126,2023-05-08T02:05:00,4.5,北北西,9.3,北,12.4,91.4,0,2.5,8.5,115,0,0,991.9,1005.7
127,2023-05-08T02:06:00,4.5,北北西,9.3,北,12.4,91.3,0,2.5,8.5,115,0,0,991.9,1005.7
128,2023-05-08T02:07:00,4.6,北北西,9.3,北,12.3,91.3,0,2.5,8.5,115,0,0,991.9,1005.7
129,2023-05-08T02:08:00,4.7,北北西,9.3,北,12.3,91.3,0,2,8.5,115,0,0,991.9,1005.7
130,2023-05-08T02:09:00,4.6,北北西,9.3,北,12.3,91.4,0.5,2.5,9,115.5,0,0,991.9,1005.7
131,2023-05-08T02:10:00,4.6,北北西,9.3,北,12.2,91.5,0.5,2.5,9,115.5,0,0,991.9,1005.7
132,2023-05-08T02:11:00,4.6,北北西,9.3,北,12.3,91.6,0.5,2.5,9,115.5,0,0,991.9,1005.7
133,2023-05-08T02:12:00,4.4,北北西,9.2,北北東,12.3,91.8,0.5,2.5,9,115.5,0,0,991.9,1005.7
134,2023-05-08T02:13:00,4.3,北北西,9.2,北北東,12.3,92,0.5,2.5,9,115.5,0,0,992,1005.8
135,2023-05-08T02:14:00,4.5,北北西,9.7,北,12.4,92.2,0.5,2.5,9,115.5,0,0,992,1005.8
136,2023-05-08T02:15:00,4.7,北北西,10.7,北西,12.4,92.1,0.5,2.5,9,115.5,0,0,992,1005.8
137,2023-05-08T02:16:00,4.9,北北西,10.7,北西,12.4,92,0.5,2.5,9,115.5,0,0,992.1,1005.9
138,2023-05-08T02:17:00,5,北北西,10.7,北西,12.3,91.5,0.5,2.5,9,115.5,0,0,992.1,1005.9
139,2023-05-08T02:18:00,5,北北西,10.7,北西,12.3,91.2,0.5,2.5,9,115.5,0,0,992.1,1005.9
140,2023-05-08T02:19:00,4.9,北北西,10.7,北西,12.3,91.3,0,2.5,9,115.5,0,0,992.2,1006
141,2023-05-08T02:20:00,4.9,北北西,10.7,北西,12.3,91.4,0,2.5,9,115.5,0,0,992.1,1005.9
142,2023-05-08T02:21:00,5.1,北北西,10.7,北西,12.4,91.6,0,2.5,9,115.5,0,0,992.1,1005.9
143,2023-05-08T02:22:00,5.2,北北西,10.7,北西,12.4,91.6,0,2.5,9,115.5,0,0,992.3,1006.1
144,2023-05-08T02:23:00,5.5,北北西,10.7,北西,12.3,91.3,0,2.5,9,115.5,0,0,992.2,1006
145,2023-05-08T02:24:00,5.2,北西,10.7,北西,12.3,91.1,0,2.5,9,115.5,0,0,992.3,1006.1
146,2023-05-08T02:25:00,4.9,北西,10.5,北西,12.3,91.1,0,2.5,9,115.5,0,0,992.4,1006.2
147,2023-05-08T02:26:00,4.8,北西,10.5,北西,12.3,91,0,2,9,115.5,0,0,992.4,1006.2
148,2023-05-08T02:27:00,4.6,北西,10.5,北西,12.3,91.1,0,2,9,115.5,0,0,992.4,1006.2
149,2023-05-08T02:28:00,4.6,北西,10.5,北西,12.3,91.2,0,2,9,115.5,0,0,992.5,1006.3
150,2023-05-08T02:29:00,4.7,北北西,10.5,北西,12.4,91.2,0,2,9,115.5,0,0,992.4,1006.2
151,2023-05-08T02:30:00,4.5,北北西,10.4,北西,12.4,91.1,0,2,9,115.5,0,0,992.5,1006.3
152,2023-05-08T02:31:00,4.2,北北西,9.2,北,12.4,90.9,0,2,9,115.5,0,0,992.4,1006.2
153,2023-05-08T02:32:00,4,北北西,9.2,北,12.3,90.7,0,2,9,115.5,0,0,992.4,1006.2
154,2023-05-08T02:33:00,3.9,北北西,9.2,北,12.3,90.6,0,1.5,9,115.5,0,0,992.4,1006.2
155,2023-05-08T02:34:00,4,北北西,9.2,北,12.2,90.5,0,1.5,9,115.5,0,0,992.4,1006.2
156,2023-05-08T02:35:00,4.2,北北西,9.2,北,12.2,90.5,0,1.5,9,115.5,0,0,992.4,1006.2
157,2023-05-08T02:36:00,4.2,北北西,9.2,北,12.2,90.6,0,1.5,9,115.5,0,0,992.4,1006.2
158,2023-05-08T02:37:00,4.2,北北西,9.2,北,12.2,90.7,0,1.5,9,115.5,0,0,992.4,1006.2
159,2023-05-08T02:38:00,4.2,北北西,8,北,12.3,90.8,0,1.5,9,115.5,0,0,992.5,1006.3
160,2023-05-08T02:39:00,4.2,北北西,8,北,12.3,90.7,0,1.5,9,115.5,0,0,992.6,1006.4
161,2023-05-08T02:40:00,4.3,北北西,8,北,12.3,90.7,0,1,9,115.5,0,0,992.6,1006.4
162,2023-05-08T02:41:00,4.6,北北西,8.7,西北西,12.3,90.7,0,1,9,115.5,0,0,992.6,1006.4
163,2023-05-08T02:42:00,4.8,北北西,8.7,西北西,12.3,90.7,0,1,9,115.5,0,0,992.7,1006.5
164,2023-05-08T02:43:00,4.9,北北西,11,北北西,12.3,90.5,0,1,9,115.5,0,0,992.7,1006.5
165,2023-05-08T02:44:00,4.8,北北西,11,北北西,12.4,90.5,0,1,9,115.5,0,0,992.7,1006.5
166,2023-05-08T02:45:00,4.6,北北西,11,北北西,12.4,90.3,0,1,9,115.5,0,0,992.7,1006.5
167,2023-05-08T02:46:00,4.6,北北西,11,北北西,12.3,90,0,1,9,115.5,0,0,992.6,1006.4
168,2023-05-08T02:47:00,4.7,北北西,11,北北西,12.4,89.9,0,1,9,115.5,0,0,992.8,1006.6
169,2023-05-08T02:48:00,4.7,北北西,11,北北西,12.3,89.7,0,1,9,115.5,0,0,992.8,1006.6
170,2023-05-08T02:49:00,4.8,北西,11,北北西,12.3,89.5,0,1,9,115.5,0,0,992.7,1006.5
171,2023-05-08T02:50:00,4.7,北西,11,北北西,12.3,89.5,0,1,9,115.5,0,0,992.8,1006.6
172,2023-05-08T02:51:00,4.6,北北西,11,北北西,12.3,89.6,0,1,9,115.5,0,0,992.6,1006.4
173,2023-05-08T02:52:00,4.7,北北西,11,北北西,12.3,89.8,0,1,9,115.5,0,0,992.7,1006.5
174,2023-05-08T02:53:00,4.5,北北西,10.3,北,12.3,89.9,0,1,9,115.5,0,0,992.8,1006.6
175,2023-05-08T02:54:00,4.6,北北西,10.3,北,12.3,89.9,0,0.5,9,115.5,0,0,992.8,1006.6
176,2023-05-08T02:55:00,4.7,北北西,10.3,北,12.4,90.1,0,0.5,9,115.5,0,0,992.9,1006.7
177,2023-05-08T02:56:00,4.9,北北西,10.3,北,12.4,90.1,0,0.5,9,115.5,0,0,993,1006.8
178,2023-05-08T02:57:00,4.9,北北西,10.3,北,12.4,90.1,0,0.5,9,115.5,0,0,993,1006.8
179,2023-05-08T02:58:00,4.9,北北西,10.3,北,12.4,90,0,0.5,9,115.5,0,0,993.1,1006.9
180,2023-05-08T02:59:00,5,北北西,10.3,北,12.4,89.8,0,0.5,9,115.5,0,0,993.1,1006.9
181,2023-05-08T03:00:00,5.1,北北西,11.2,北北東,12.4,89.8,0,0.5,9,115.5,0,0,993.1,1006.9
182,2023-05-08T03:01:00,5.1,北北西,11.2,北北東,12.4,89.8,0,0.5,9,115.5,0,0,993,1006.8
183,2023-05-08T03:02:00,4.9,北,11.2,北北東,12.4,89.8,0,0.5,9,115.5,0,0,993.1,1006.9
184,2023-05-08T03:03:00,4.9,北,11.2,北北東,12.4,89.8,0,0.5,9,115.5,0,0,993.2,1007.1
185,2023-05-08T03:04:00,5,北,11.2,北北東,12.4,89.7,0,0.5,9,115.5,0,0,993.1,1006.9
186,2023-05-08T03:05:00,5,北,11.2,北北東,12.3,89.8,0,0.5,9,115.5,0,0,993.1,1007
187,2023-05-08T03:06:00,4.9,北,11.2,北北東,12.3,90,0,0.5,9,115.5,0,0,993.1,1007
188,2023-05-08T03:07:00,4.8,北,11.2,北北東,12.2,90.2,0,0.5,9,115.5,0,0,993.1,1007
189,2023-05-08T03:08:00,4.7,北,11.2,北北東,12.2,90.6,0,0.5,9,115.5,0,0,993.1,1007
190,2023-05-08T03:09:00,4.6,北,11.2,北北東,12.1,90.8,0,0,9,115.5,0,0,993.1,1007
191,2023-05-08T03:10:00,4.7,北,10.4,北北東,12.2,91.2,0,0,9,115.5,0,0,993.2,1007.1
192,2023-05-08T03:11:00,4.8,北,10.4,北北東,12.2,91.8,0,0,9,115.5,0,0,993.2,1007.1
193,2023-05-08T03:12:00,4.7,北,10.4,北北東,12.1,92,0,0,9,115.5,0,0,993.3,1007.2
194,2023-05-08T03:13:00,4.6,北,10.4,北北東,12.1,92.2,0,0,9,115.5,0,0,993.2,1007.1
195,2023-05-08T03:14:00,4.4,北,10.4,北北東,12,92.4,0,0,9,115.5,0,0,993.1,1007
196,2023-05-08T03:15:00,4.1,北,10.4,北北東,12,92.8,0,0,9,115.5,0,0,993.2,1007.1
197,2023-05-08T03:16:00,4.1,北,10.4,北北東,12,93.1,0,0,9,115.5,0,0,993.2,1007.1
198,2023-05-08T03:17:00,4.1,北,10.4,北北東,12,93.3,0,0,9,115.5,0,0,993.3,1007.2
199,2023-05-08T03:18:00,4.4,北,10.7,北,12.1,93.6,0,0,9,115.5,0,0,993.3,1007.2
200,2023-05-08T03:19:00,4.6,北,10.7,北,12.1,93.9,0,0,9,115.5,0,0,993.3,1007.2
201,2023-05-08T03:20:00,4.3,北,10.7,北,12.1,94,0,0,9,115.5,0,0,993.4,1007.3
202,2023-05-08T03:21:00,4.5,北,12.3,北西,12.1,93.8,0,0,9,115.5,0,0,993.3,1007.2
203,2023-05-08T03:22:00,4.5,北,12.3,北西,12.2,93.9,0,0,9,115.5,0,0,993.4,1007.3
204,2023-05-08T03:23:00,4.7,北,12.3,北西,12.2,93.9,0,0,9,115.5,0,0,993.4,1007.3
205,2023-05-08T03:24:00,4.8,北,12.3,北西,12.2,93.7,0,0,9,115.5,0,0,993.3,1007.2
206,2023-05-08T03:25:00,5,北,12.3,北西,12.2,93.5,0,0,9,115.5,0,0,993.4,1007.3
207,2023-05-08T03:26:00,5.2,北,12.3,北西,12.1,93.2,0,0,9,115.5,0,0,993.4,1007.3
208,2023-05-08T03:27:00,5.2,北北西,12.3,北西,12.1,93.2,0,0,9,115.5,0,0,993.5,1007.4
209,2023-05-08T03:28:00,5,北北西,12.3,北西,12.1,93,0,0,9,115.5,0,0,993.4,1007.3
210,2023-05-08T03:29:00,5,北北西,13.6,北西,12.1,92.9,0,0,9,115.5,0,0,993.5,1007.4
211,2023-05-08T03:30:00,5.6,北北西,14.6,北西,12.2,92.7,0,0,9,115.5,0,0,993.1,1007
212,2023-05-08T03:31:00,5.3,北北西,14.6,北西,12.3,92.7,0,0,9,115.5,0,0,993.4,1007.3
213,2023-05-08T03:32:00,5.3,北北西,14.6,北西,12.2,92.1,0,0,9,115.5,0,0,993.3,1007.2
214,2023-05-08T03:33:00,5.3,北北西,14.6,北西,12.2,91.6,0,0,9,115.5,0,0,993.4,1007.3
215,2023-05-08T03:34:00,5.3,北北西,14.6,北西,12.2,91.2,0,0,9,115.5,0,0,993.5,1007.4
216,2023-05-08T03:35:00,5.2,北北西,14.6,北西,12.2,91,0,0,9,115.5,0,0,993.5,1007.4
217,2023-05-08T03:36:00,5.1,北北西,14.6,北西,12.2,91.1,0,0,9,115.5,0,0,993.5,1007.4
218,2023-05-08T03:37:00,5.3,北北西,14.6,北西,12.3,90.9,0,0,9,115.5,0,0,993.5,1007.4
219,2023-05-08T03:38:00,5.4,北北西,14.6,北西,12.3,90.7,0,0,9,115.5,0,0,993.5,1007.4
220,2023-05-08T03:39:00,5.3,北北西,14.6,北西,12.3,90.2,0,0,9,115.5,0,0,993.5,1007.4
221,2023-05-08T03:40:00,4.9,北北西,13.9,北,12.2,89.7,0,0,9,115.5,0,0,993.5,1007.4
222,2023-05-08T03:41:00,5.1,北北西,13.9,北,12.3,89.5,0,0,9,115.5,0,0,993.6,1007.5
223,2023-05-08T03:42:00,5.3,北北西,13.9,北,12.2,89.4,0,0,9,115.5,0,0,993.5,1007.4
224,2023-05-08T03:43:00,5.3,北北西,13.9,北,12.3,89.2,0,0,9,115.5,0,0,993.6,1007.5
225,2023-05-08T03:44:00,5.2,北北西,13.9,北,12.3,89.1,0,0,9,115.5,0,0,993.6,1007.5
226,2023-05-08T03:45:00,5.7,北北西,13.9,北,12.3,88.8,0,0,9,115.5,0,0,993.5,1007.4
227,2023-05-08T03:46:00,5.7,北北西,13.9,北,12.3,88.6,0,0,9,115.5,0,0,993.7,1007.6
228,2023-05-08T03:47:00,5.6,北北西,13.9,北,12.2,88.4,0,0,9,115.5,0,0,993.8,1007.7
229,2023-05-08T03:48:00,5.6,北北西,13.9,北,12.2,88.3,0,0,9,115.5,0,0,993.9,1007.8
230,2023-05-08T03:49:00,5.5,北北西,13.9,北,12.2,88.3,0,0,9,115.5,0,0,993.9,1007.8
231,2023-05-08T03:50:00,5.7,北北西,13.6,北北東,12.2,88.6,0,0,9,115.5,0,0,994,1007.9
232,2023-05-08T03:51:00,5.5,北北西,13.6,北北東,12.2,88.8,0,0,9,115.5,0,0,994.1,1008
233,2023-05-08T03:52:00,5.4,北北西,13.6,北北東,12.2,88.8,0,0,9,115.5,0,0,994.1,1008
234,2023-05-08T03:53:00,5.3,北北西,13.6,北北東,12.2,88.8,0,0,9,115.5,0,0,994.1,1008
235,2023-05-08T03:54:00,5.4,北北西,13.6,北北東,12.1,88.8,0,0,9,115.5,0,0,994.1,1008
236,2023-05-08T03:55:00,5,北,13.6,北北東,12.2,89.1,0,0,9,115.5,0,0,994.1,1008
237,2023-05-08T03:56:00,4.8,北,13.6,北北東,12.2,89.1,0,0,9,115.5,0,0,994.1,1008
238,2023-05-08T03:57:00,4.6,北北西,13.6,北北東,12.1,89.1,0,0,9,115.5,0,0,994.2,1008.1
239,2023-05-08T03:58:00,4.5,北北西,13.6,北北東,12.1,89.3,0,0,9,115.5,0,0,994.2,1008.1
240,2023-05-08T03:59:00,4.6,北,13.6,北北東,12.1,89.4,0,0,9,115.5,0,0,994.2,1008.1
241,2023-05-08T04:00:00,4.3,北北西,10.7,北北東,12.2,89.4,0,0,9,115.5,0,0,994.2,1008.1
242,2023-05-08T04:01:00,4.3,北北西,10.7,北北東,12.1,89.3,0,0,9,115.5,0,0,994.2,1008.1
243,2023-05-08T04:02:00,4.1,北,10.7,北北東,12.2,89.4,0,0,9,115.5,0,0,994.2,1008.1
244,2023-05-08T04:03:00,4.3,北,10.7,北北東,12.2,89.4,0,0,9,115.5,0,0,994.2,1008.1
245,2023-05-08T04:04:00,4.1,北,10.2,北,12.2,89.5,0,0,9,115.5,0,0,994.2,1008.1
246,2023-05-08T04:05:00,4.2,北,10.2,北,12.2,89.4,0,0,9,115.5,0,0,994.3,1008.2
247,2023-05-08T04:06:00,4.3,北,10.2,北,12.1,89.4,0,0,9,115.5,0,0,994.3,1008.2
248,2023-05-08T04:07:00,4.5,北,10.2,北,12.1,89.4,0,0,9,115.5,0,0,994.4,1008.3
249,2023-05-08T04:08:00,4.4,北,10.2,北,12.1,89.5,0,0,9,115.5,0,0,994.4,1008.3
250,2023-05-08T04:09:00,4.2,北北西,10,北,12.2,89.5,0,0,9,115.5,0,0,994.5,1008.4
251,2023-05-08T04:10:00,4.2,北北西,10,北,12.1,89.6,0,0,9,115.5,0,0,994.5,1008.4
252,2023-05-08T04:11:00,4.1,北北西,10,北,12.2,89.6,0,0,9,115.5,0,0,994.5,1008.4
253,2023-05-08T04:12:00,4.1,北北西,10,北,12.1,89.5,0,0,9,115.5,0,0,994.4,1008.3
254,2023-05-08T04:13:00,4,北北西,9.9,北北東,12.1,89.4,0,0,9,115.5,0,0,994.4,1008.3
255,2023-05-08T04:14:00,4.2,北北西,9.3,北北西,12.1,89.4,0,0,9,115.5,0,0,994.4,1008.3
256,2023-05-08T04:15:00,4,北北西,9,北西,12.2,89.5,0,0,9,115.5,0,0,994.5,1008.4
257,2023-05-08T04:16:00,4,北北西,9,北西,12.2,89.5,0,0,9,115.5,0,0,994.5,1008.4
258,2023-05-08T04:17:00,4,北北西,8.7,北東,12.1,89.4,0,0,9,115.5,0,0,994.5,1008.4
259,2023-05-08T04:18:00,4.2,北北西,8.7,北東,12.1,89.3,0,0,9,115.5,0,0,994.5,1008.4
260,2023-05-08T04:19:00,4.2,北北西,8.5,北,12.1,89.3,0,0,9,115.5,0,0,994.5,1008.4
261,2023-05-08T04:20:00,4.3,北北西,10.2,北,12.1,89.4,0,0,9,115.5,0,0,994.6,1008.5
262,2023-05-08T04:21:00,4.5,北北西,10.2,北,12.2,89.3,0,0,9,115.5,0,0,994.6,1008.5
263,2023-05-08T04:22:00,4.5,北北西,10.2,北,12.1,89.1,0,0,9,115.5,0,0,994.6,1008.5
264,2023-05-08T04:23:00,4.6,北北西,10.2,北,12.1,89.1,0,0,9,115.5,0,0,994.6,1008.5
265,2023-05-08T04:24:00,4.4,北北西,10.2,北,12.1,89,0,0,9,115.5,0,0,994.7,1008.6
266,2023-05-08T04:25:00,4.4,北北西,10.2,北,12.1,89.1,0,0,9,115.5,0,0,994.7,1008.6
267,2023-05-08T04:26:00,4.4,北北西,10.2,北,12.2,89.1,0,0,9,115.5,0,0,994.7,1008.6
268,2023-05-08T04:27:00,4.3,北北西,10.2,北,12.2,88.9,0,0,9,115.5,0,0,994.6,1008.5
269,2023-05-08T04:28:00,4.2,北北西,10.2,北,12.2,88.7,0,0,9,115.5,0,0,994.7,1008.6
270,2023-05-08T04:29:00,4.4,北北西,10.2,北,12.2,88.6,0,0,9,115.5,0,0,994.7,1008.6
271,2023-05-08T04:30:00,4.2,北北西,9.5,北,12.1,88.3,0,0,9,115.5,0,0,994.8,1008.7
272,2023-05-08T04:31:00,4.1,北北西,9.5,北,12.2,88.3,0,0,9,115.5,0,0,994.7,1008.6
273,2023-05-08T04:32:00,4.1,北北西,9.5,北,12.2,88.3,0,0,9,115.5,0,0,994.9,1008.8
274,2023-05-08T04:33:00,3.9,北北西,9.5,北,12.2,88,0,0,9,115.5,0,0,994.8,1008.7
275,2023-05-08T04:34:00,4,北北西,9.5,北,12.2,87.9,0,0,9,115.5,0,0,994.9,1008.8
276,2023-05-08T04:35:00,4.1,北北西,9.5,北,12.2,87.9,0,0,9,115.5,0,0,994.9,1008.8
277,2023-05-08T04:36:00,4,北北西,8.8,北,12.1,87.7,0,0,9,115.5,0,0,994.9,1008.8
278,2023-05-08T04:37:00,4.2,北北西,8.8,北,12.1,87.7,0,0,9,115.5,0,0,995,1008.9
279,2023-05-08T04:38:00,4.2,北北西,8.8,北,12.2,87.8,0,0,9,115.5,0,0,995.1,1009
280,2023-05-08T04:39:00,4.2,北北西,8.8,北,12.1,87.8,0,0,9,115.5,0,0,995,1008.9
281,2023-05-08T04:40:00,4.3,北北西,8.8,北,12.1,87.7,0,0,9,115.5,0,0,995.1,1009
282,2023-05-08T04:41:00,4.2,北北西,8.8,北,12.2,87.7,0,0,9,115.5,0,0,995.1,1009
283,2023-05-08T04:42:00,4.4,北北西,11.3,北西,12.1,87.7,0,0,9,115.5,0,0,995.2,1009.1
284,2023-05-08T04:43:00,4.6,北北西,11.3,北西,12.2,87.5,0,0,9,115.5,0,0,995.3,1009.2
285,2023-05-08T04:44:00,4.8,北北西,11.3,北西,12.2,87.3,0,0,9,115.5,0,0,995.3,1009.2
286,2023-05-08T04:45:00,4.7,北北西,11.3,北西,12.2,87,0,0,9,115.5,0,0,995.4,1009.3
287,2023-05-08T04:46:00,4.7,北北西,11.3,北西,12.2,87,0,0,9,115.5,0,0,995.3,1009.2
288,2023-05-08T04:47:00,4.6,北北西,11.3,北西,12.2,86.7,0,0,9,115.5,0,0,995.4,1009.3
289,2023-05-08T04:48:00,4.7,北北西,11.3,北西,12.2,86.5,0,0,9,115.5,0,0,995.3,1009.2
290,2023-05-08T04:49:00,4.6,北北西,11.3,北西,12.2,86.2,0,0,9,115.5,0,0,995.2,1009.1
291,2023-05-08T04:50:00,4.7,北北西,11.3,北西,12.2,85.9,0,0,9,115.5,0,0,995.2,1009.1
292,2023-05-08T04:51:00,4.7,北北西,11.3,北西,12.2,85.7,0,0,9,115.5,0,0,995.2,1009.1
293,2023-05-08T04:52:00,4.5,北北西,10.6,北西,12.2,85.6,0,0,9,115.5,0,0,995.2,1009.1
294,2023-05-08T04:53:00,4.2,北北西,9.7,北,12.2,85.6,0,0,9,115.5,0,0,995.2,1009.1
295,2023-05-08T04:54:00,4.1,北北西,9.7,北,12.2,85.7,0,0,9,115.5,0,0,995.2,1009.1
296,2023-05-08T04:55:00,4.1,北北西,11.2,北西,12.2,85.8,0,0,9,115.5,0,0,995.3,1009.2
297,2023-05-08T04:56:00,4.3,北北西,11.2,北西,12.2,85.7,0,0,9,115.5,0,0,995.2,1009.1
298,2023-05-08T04:57:00,4.2,北北西,11.2,北西,12.1,85.7,0,0,9,115.5,0,0,995.3,1009.2
299,2023-05-08T04:58:00,4.2,北北西,11.2,北西,12.2,85.7,0,0,9,115.5,0,0,995.2,1009.1
300,2023-05-08T04:59:00,4.2,北北西,11.2,北西,12.1,85.7,0,0,9,115.5,0,0,995.1,1009
301,2023-05-08T05:00:00,4.1,北北西,11.2,北西,12.2,85.7,0,0,9,115.5,0,0,995.3,1009.2
302,2023-05-08T05:01:00,4.1,北北西,11.2,北西,12.1,85.7,0,0,9,115.5,0,0,995.3,1009.2
303,2023-05-08T05:02:00,4.1,北北西,11.2,北西,12.1,85.5,0,0,9,115.5,0,0,995.3,1009.2
304,2023-05-08T05:03:00,4.1,北北西,11.2,北西,12.2,85.7,0,0,9,115.5,0,0,995.3,1009.2